User: anonymous   Login
Location: Unnamed Road
(35.9029°N, 51.9749°E)
Time: 12:13:06
(UTC+04:30)
Language:

Courier 1B Rocket - Orbit

View from above orbital plane
View from above orbital plane
View from above satellite
View from above satellite

Ground track
Ground track

The orbit data is extracted from the following two-line orbital elements,

1    59U 60013B   20146.74476230 +.00000102 +00000-0 +21231-4 0  9996
2    59 028.2494 334.8544 0189100 095.5733 266.6409 13.52975859943527
Epoch (UTC): 25 May 2020 17:52:27
Eccentricity: 0.0189100
inclination: 28.2494°
perigee height: 920 km
apogee height: 1202 km
right ascension of ascending node: 334.8544°
argument of perigee: 95.5733°
revolutions per day: 13.52975859
mean anomaly at epoch: 266.6409°
orbit number at epoch: 94352

The dashed part of the orbit path shows where the satellite is in the earth's shadow,  

DLR